AFL909 HEGN-UWKD

Flight info

Callsign AFL909
Flight time N/A
Altitude 34000
Route BOTIX V608 NABED T55 GINDI W8 ALPID DCT GESON Q777 RASDA M855 TOMBI UM855 AYT UR55 MUT UA285 SIV UW706 TBN UN37 SARPI N37 LURIS/K0809F340 A955 PINMU DCT KUDAS DCT ITAKA DCT TUVGI DCT EVZUN DCT ZIZAR DCT VAZLU DCT UZZID DCT NOKLI N72 TUSAB R807 UROBO P135 DAFOS T789 SONUM
Aircraft B738/M-SDE3FGHIRWY/LB1

Departure

Time 2026-05-01 12:42
Airport Hurghada International Airport (HEGN)

Arrival

Time N/A
Airport Kazan International Airport (UWKD)
Time Latitude Longitude Altitude Speed Heading
2026-05-01 12:14 27.17777 33.80673 60 ft 0 kts 75°
2026-05-01 12:29 27.17773 33.80656 58 ft 4 kts 76°
2026-05-01 12:29 27.17763 33.80597 54 ft 4 kts 85°
2026-05-01 12:30 27.17773 33.80546 59 ft 2 kts 165°
2026-05-01 12:30 27.17778 33.80545 53 ft 0 kts 165°
2026-05-01 12:33 27.17777 33.80545 53 ft 1 kts 165°
2026-05-01 12:33 27.17764 33.80549 57 ft 3 kts 165°
2026-05-01 12:33 27.17733 33.80559 54 ft 6 kts 165°
2026-05-01 12:34 27.17682 33.80574 56 ft 8 kts 165°
2026-05-01 12:34 27.17627 33.80590 56 ft 9 kts 165°
2026-05-01 12:34 27.17570 33.80607 59 ft 9 kts 165°
2026-05-01 12:34 27.17522 33.80616 57 ft 7 kts 188°
2026-05-01 12:35 27.17486 33.80573 57 ft 8 kts 249°
2026-05-01 12:35 27.17470 33.80512 54 ft 8 kts 255°
2026-05-01 12:35 27.17456 33.80453 58 ft 9 kts 255°
2026-05-01 12:35 27.17436 33.80372 58 ft 12 kts 255°
2026-05-01 12:36 27.17411 33.80265 55 ft 16 kts 255°
2026-05-01 12:36 27.17379 33.80132 58 ft 19 kts 255°
2026-05-01 12:36 27.17341 33.79974 54 ft 23 kts 255°
2026-05-01 12:36 27.17297 33.79790 56 ft 25 kts 255°
2026-05-01 12:37 27.17259 33.79631 56 ft 17 kts 255°
2026-05-01 12:37 27.17234 33.79532 58 ft 11 kts 246°
2026-05-01 12:37 27.17166 33.79510 56 ft 12 kts 168°
2026-05-01 12:37 27.17075 33.79537 57 ft 15 kts 165°
2026-05-01 12:38 27.16966 33.79569 59 ft 18 kts 165°
2026-05-01 12:38 27.16838 33.79606 56 ft 21 kts 165°
2026-05-01 12:38 27.16687 33.79651 56 ft 24 kts 165°
2026-05-01 12:38 27.16515 33.79702 56 ft 26 kts 165°
2026-05-01 12:39 27.16349 33.79751 60 ft 23 kts 165°
2026-05-01 12:39 27.16199 33.79796 59 ft 21 kts 165°
2026-05-01 12:39 27.16072 33.79834 56 ft 13 kts 165°
2026-05-01 12:39 27.15995 33.79857 57 ft 9 kts 165°
2026-05-01 12:40 27.15943 33.79847 60 ft 7 kts 219°
2026-05-01 12:40 27.15932 33.79819 59 ft 1 kts 256°
2026-05-01 12:40 27.15927 33.79797 58 ft 6 kts 255°
2026-05-01 12:40 27.15913 33.79740 57 ft 8 kts 255°
2026-05-01 12:41 27.15918 33.79691 60 ft 6 kts 309°
2026-05-01 12:41 27.15961 33.79670 58 ft 6 kts 344°
2026-05-01 12:41 27.15965 33.79668 58 ft 0 kts 344°
2026-05-01 12:41 27.16073 33.79636 56 ft 47 kts 345°
2026-05-01 12:42 27.16598 33.79481 54 ft 106 kts 345°
2026-05-01 12:42 27.17476 33.79220 54 ft 153 kts 345°
2026-05-01 12:42 27.18588 33.78875 337 ft 170 kts 347°
2026-05-01 12:42 27.19742 33.78533 1031 ft 172 kts 345°
2026-05-01 12:43 27.20737 33.77829 1663 ft 175 kts 307°
2026-05-01 12:43 27.21092 33.76501 2099 ft 189 kts 269°
2026-05-01 12:43 27.20889 33.74995 2420 ft 201 kts 264°
2026-05-01 12:43 27.20674 33.73393 2763 ft 217 kts 268°
2026-05-01 12:44 27.20670 33.71668 3236 ft 225 kts 275°
2026-05-01 12:44 27.20785 33.69852 3578 ft 244 kts 277°
2026-05-01 12:44 27.21123 33.65922 4735 ft 257 kts 277°
2026-05-01 12:45 27.21439 33.61898 6212 ft 259 kts 276°
2026-05-01 12:45 27.21584 33.59887 6941 ft 259 kts 276°
2026-05-01 12:45 27.21724 33.57887 7623 ft 261 kts 276°
2026-05-01 12:46 27.21865 33.55848 8346 ft 263 kts 277°
2026-05-01 12:46 27.22006 33.53806 9085 ft 263 kts 277°
2026-05-01 12:46 27.22152 33.51751 9805 ft 264 kts 277°
2026-05-01 12:46 27.22303 33.49656 10218 ft 279 kts 277°
2026-05-01 12:47 27.22462 33.47392 10357 ft 302 kts 276°
2026-05-01 12:47 27.22627 33.44989 10552 ft 321 kts 276°
2026-05-01 12:47 27.22803 33.42458 11038 ft 329 kts 276°
2026-05-01 12:47 27.22977 33.39888 11639 ft 332 kts 276°
2026-05-01 12:48 27.23150 33.37291 12289 ft 334 kts 276°
2026-05-01 12:48 27.23322 33.34678 12958 ft 337 kts 276°
2026-05-01 12:48 27.23496 33.32041 13613 ft 339 kts 276°
2026-05-01 12:48 27.23675 33.29391 14220 ft 341 kts 276°
2026-05-01 12:49 27.23850 33.26725 14763 ft 343 kts 275°
2026-05-01 12:49 27.24023 33.24074 15300 ft 346 kts 275°
2026-05-01 12:49 27.24200 33.21358 15758 ft 352 kts 275°
2026-05-01 12:49 27.24381 33.18601 16300 ft 355 kts 275°
2026-05-01 12:50 27.24563 33.15831 16866 ft 357 kts 274°
2026-05-01 12:50 27.24746 33.13043 17403 ft 359 kts 274°
2026-05-01 12:50 27.24932 33.10237 17900 ft 362 kts 274°
2026-05-01 12:50 27.25117 33.07405 18350 ft 366 kts 274°
2026-05-01 12:51 27.25303 33.04543 18768 ft 368 kts 274°
2026-05-01 12:51 27.25484 33.01704 19185 ft 370 kts 274°
2026-05-01 12:51 27.25856 32.95891 20021 ft 375 kts 274°
2026-05-01 12:52 27.26041 32.92960 20432 ft 378 kts 274°
2026-05-01 12:52 27.26430 32.87031 21218 ft 383 kts 274°
2026-05-01 12:52 27.26624 32.84042 21625 ft 385 kts 274°
2026-05-01 12:53 27.26998 32.78040 22401 ft 390 kts 274°
2026-05-01 12:53 27.27187 32.74984 22778 ft 393 kts 274°
2026-05-01 12:53 27.27379 32.71914 23147 ft 395 kts 274°
2026-05-01 12:54 27.27575 32.68824 23505 ft 398 kts 275°
2026-05-01 12:54 27.27968 32.62590 24150 ft 401 kts 275°
2026-05-01 12:54 27.28158 32.59498 24482 ft 402 kts 275°
2026-05-01 12:55 27.28537 32.53199 25141 ft 405 kts 275°
2026-05-01 12:55 27.28728 32.50033 25464 ft 406 kts 275°
2026-05-01 12:55 27.28922 32.46865 25785 ft 407 kts 275°
2026-05-01 12:56 27.29117 32.43683 26110 ft 408 kts 275°
2026-05-01 12:56 27.29309 32.40499 26434 ft 409 kts 275°
2026-05-01 12:56 27.29499 32.37301 26750 ft 410 kts 275°
2026-05-01 12:56 27.29691 32.34101 27054 ft 411 kts 275°
2026-05-01 12:57 27.30083 32.30967 27349 ft 410 kts 284°
2026-05-01 12:57 27.32383 32.25122 27926 ft 413 kts 303°
2026-05-01 12:57 27.34118 32.22544 28201 ft 414 kts 306°
2026-05-01 12:58 27.35883 32.19975 28480 ft 415 kts 306°
2026-05-01 12:58 27.37648 32.17405 28785 ft 416 kts 306°
2026-05-01 12:58 27.39419 32.14823 29051 ft 417 kts 306°
2026-05-01 12:59 27.42962 32.09645 29609 ft 418 kts 306°
2026-05-01 12:59 27.44704 32.07092 30015 ft 415 kts 306°
2026-05-01 12:59 27.48202 32.01962 30700 ft 411 kts 306°
2026-05-01 13:00 27.51665 31.96889 31333 ft 407 kts 306°
2026-05-01 13:00 27.53389 31.94364 31652 ft 405 kts 306°
2026-05-01 13:01 27.56784 31.89381 32288 ft 401 kts 306°
2026-05-01 13:01 27.58478 31.86895 32622 ft 399 kts 306°
2026-05-01 13:01 27.61844 31.81945 33240 ft 396 kts 306°
2026-05-01 13:02 27.63515 31.79486 33526 ft 395 kts 306°
2026-05-01 13:07 28.04977 31.42448 33927 ft 420 kts 359°
2026-05-01 13:07 28.07843 31.42818 33923 ft 421 kts 358°
2026-05-01 13:08 28.13663 31.43553 33929 ft 421 kts 358°
2026-05-01 13:08 28.19488 31.44287 33933 ft 421 kts 358°
2026-05-01 13:09 28.25323 31.45026 33942 ft 422 kts 358°
2026-05-01 13:09 28.31161 31.45763 33945 ft 422 kts 358°
2026-05-01 13:10 28.36957 31.46492 33950 ft 422 kts 358°
2026-05-01 13:10 28.42798 31.47233 33950 ft 422 kts 358°
2026-05-01 13:11 28.48643 31.47971 33950 ft 423 kts 358°
2026-05-01 13:11 28.54490 31.48710 33949 ft 423 kts 358°
2026-05-01 13:12 28.60301 31.49442 33946 ft 423 kts 359°
2026-05-01 13:12 28.66157 31.50188 33947 ft 423 kts 359°
2026-05-01 13:13 28.72013 31.50936 33945 ft 424 kts 359°
2026-05-01 13:13 28.77825 31.51673 33943 ft 423 kts 359°
2026-05-01 13:14 28.83679 31.52414 33945 ft 424 kts 359°
2026-05-01 13:14 28.89541 31.53160 33945 ft 424 kts 359°
2026-05-01 13:15 28.95409 31.53916 33943 ft 424 kts 359°
2026-05-01 13:15 29.01237 31.54656 33946 ft 424 kts 359°
2026-05-01 13:16 29.07104 31.55402 33942 ft 425 kts 359°
2026-05-01 13:16 29.12986 31.56154 33952 ft 426 kts 359°
2026-05-01 13:17 29.24737 31.57668 33963 ft 426 kts 359°
2026-05-01 13:18 29.33590 31.58802 33968 ft 427 kts 359°
2026-05-01 13:18 29.39457 31.59557 33968 ft 428 kts 359°
2026-05-01 13:19 29.45372 31.60322 33970 ft 427 kts 359°
2026-05-01 13:20 29.54240 31.61478 33972 ft 428 kts 359°
2026-05-01 13:20 29.60108 31.62227 33972 ft 427 kts 359°
2026-05-01 13:21 29.68964 31.63369 33956 ft 427 kts 359°
2026-05-01 13:21 29.74872 31.64144 33960 ft 427 kts 359°
2026-05-01 13:22 29.80750 31.64906 33955 ft 428 kts 359°
2026-05-01 13:22 29.86669 31.65676 33961 ft 429 kts 359°
2026-05-01 13:23 29.92582 31.66060 33958 ft 419 kts 348°
2026-05-01 13:23 29.98308 31.65091 33961 ft 416 kts 345°
2026-05-01 13:24 30.03998 31.64070 33963 ft 416 kts 345°
2026-05-01 13:25 30.12595 31.62529 33963 ft 417 kts 345°
2026-05-01 13:25 30.18335 31.61496 33960 ft 418 kts 345°
2026-05-01 13:26 30.24039 31.60473 33951 ft 418 kts 345°
2026-05-01 13:26 30.29784 31.59436 33948 ft 418 kts 345°
2026-05-01 13:27 30.35533 31.58401 33943 ft 418 kts 345°
2026-05-01 13:27 30.44108 31.56850 33941 ft 418 kts 345°
2026-05-01 13:28 30.52730 31.55300 33938 ft 418 kts 345°
2026-05-01 13:29 30.64205 31.53213 33934 ft 420 kts 345°
2026-05-01 13:31 30.80560 31.50240 33934 ft 420 kts 345°
2026-05-01 13:32 30.95971 31.47430 33944 ft 422 kts 345°
2026-05-01 13:33 31.10443 31.44766 33950 ft 422 kts 345°
2026-05-01 13:34 31.21080 31.42824 33958 ft 423 kts 345°
2026-05-01 13:35 31.30753 31.41037 33966 ft 424 kts 344°
2026-05-01 13:36 31.38504 31.39588 33970 ft 424 kts 345°
2026-05-01 13:36 31.47256 31.37977 33977 ft 425 kts 345°
2026-05-01 13:37 31.53089 31.36893 33978 ft 425 kts 344°
2026-05-01 13:37 31.58919 31.35928 33975 ft 428 kts 347°
2026-05-01 13:38 31.67850 31.35094 33978 ft 430 kts 349°
2026-05-01 13:39 31.74783 31.34464 33980 ft 430 kts 348°
2026-05-01 13:39 31.79724 31.33949 33987 ft 429 kts 348°
2026-05-01 13:40 31.85683 31.33307 33976 ft 430 kts 348°
2026-05-01 13:40 31.92610 31.32571 33984 ft 431 kts 348°
2026-05-01 13:41 31.97571 31.32041 33970 ft 431 kts 348°
2026-05-01 13:41 32.03544 31.31407 33968 ft 431 kts 348°
2026-05-01 13:42 32.09520 31.30778 33971 ft 432 kts 348°
2026-05-01 13:42 32.15506 31.30140 33958 ft 432 kts 348°
2026-05-01 13:43 32.21451 31.29506 33964 ft 432 kts 348°
2026-05-01 13:43 32.27440 31.28861 33964 ft 432 kts 348°
2026-05-01 13:44 32.33431 31.28215 33966 ft 432 kts 348°
2026-05-01 13:44 32.39429 31.27569 33971 ft 433 kts 348°
2026-05-01 13:45 32.45383 31.26929 33975 ft 433 kts 348°
2026-05-01 13:45 32.51381 31.26286 33973 ft 433 kts 348°
2026-05-01 13:46 32.57318 31.25363 33970 ft 425 kts 338°
2026-05-01 13:46 32.62688 31.22763 33972 ft 414 kts 328°
2026-05-01 13:47 32.67827 31.19748 33966 ft 415 kts 328°
2026-05-01 13:47 32.73009 31.16726 33964 ft 415 kts 328°
2026-05-01 13:48 32.78191 31.13704 33970 ft 415 kts 328°
2026-05-01 13:48 32.83377 31.10668 33972 ft 416 kts 328°
2026-05-01 13:49 32.88531 31.07640 33973 ft 415 kts 328°
2026-05-01 13:49 32.93711 31.04596 33973 ft 415 kts 328°
2026-05-01 13:50 32.98888 31.01554 33974 ft 415 kts 328°
2026-05-01 13:50 33.04061 30.98514 33973 ft 414 kts 328°
2026-05-01 13:51 33.09301 30.95728 33973 ft 421 kts 337°
2026-05-01 13:51 33.15202 30.94782 33973 ft 435 kts 351°
2026-05-01 13:52 33.21249 30.94564 33968 ft 435 kts 351°
2026-05-01 13:52 33.27254 30.94353 33962 ft 435 kts 351°
2026-05-01 13:53 33.33307 30.94126 33962 ft 435 kts 351°
2026-05-01 13:53 33.42371 30.93773 33958 ft 434 kts 351°
2026-05-01 13:54 33.48423 30.93547 33956 ft 435 kts 351°
2026-05-01 13:54 33.54426 30.93324 33957 ft 435 kts 351°
2026-05-01 13:55 33.60476 30.93088 33955 ft 435 kts 350°
2026-05-01 13:55 33.66532 30.92861 33956 ft 436 kts 351°
2026-05-01 13:56 33.72551 30.92646 33952 ft 436 kts 351°
2026-05-01 13:56 33.78616 30.92424 33955 ft 436 kts 350°
2026-05-01 13:57 33.84679 30.92180 33949 ft 436 kts 350°
2026-05-01 13:57 33.90747 30.91945 33948 ft 436 kts 350°
2026-05-01 13:58 33.96774 30.91717 33956 ft 436 kts 350°
2026-05-01 13:58 34.02836 30.91405 33958 ft 436 kts 349°
2026-05-01 13:59 34.08895 30.91043 33958 ft 436 kts 349°
2026-05-01 13:59 34.14956 30.90684 33958 ft 436 kts 349°
2026-05-01 14:00 34.20977 30.90337 33959 ft 436 kts 349°
2026-05-01 14:00 34.27038 30.90003 33958 ft 436 kts 349°
2026-05-01 14:01 34.33100 30.89716 33955 ft 436 kts 350°
2026-05-01 14:01 34.39127 30.89448 33957 ft 436 kts 350°
2026-05-01 14:02 34.45186 30.89158 33955 ft 436 kts 349°
2026-05-01 14:02 34.51243 30.88850 33956 ft 436 kts 349°
2026-05-01 14:03 34.57310 30.88548 33965 ft 436 kts 349°
2026-05-01 14:03 34.63372 30.88255 33958 ft 436 kts 350°
2026-05-01 14:04 34.69403 30.88046 33958 ft 437 kts 350°
2026-05-01 14:04 34.75480 30.87869 33963 ft 437 kts 350°
2026-05-01 14:05 34.81550 30.87676 33949 ft 436 kts 350°
2026-05-01 14:05 34.87622 30.87476 33946 ft 436 kts 350°
2026-05-01 14:06 34.93649 30.87283 33944 ft 436 kts 350°
2026-05-01 14:06 34.99716 30.87084 33940 ft 436 kts 350°
2026-05-01 14:07 35.05786 30.86874 33938 ft 436 kts 350°
2026-05-01 14:08 35.14841 30.86577 33928 ft 436 kts 350°
2026-05-01 14:08 35.20908 30.86365 33932 ft 436 kts 350°
2026-05-01 14:09 35.26976 30.86154 33933 ft 436 kts 350°
2026-05-01 14:09 35.33043 30.85948 33930 ft 436 kts 350°
2026-05-01 14:10 35.39070 30.85750 33926 ft 436 kts 350°
2026-05-01 14:10 35.45139 30.85545 33928 ft 436 kts 350°
2026-05-01 14:11 35.51204 30.85344 33925 ft 436 kts 350°
2026-05-01 14:11 35.60275 30.85052 33925 ft 437 kts 349°
2026-05-01 14:12 35.66344 30.84791 33923 ft 436 kts 348°
2026-05-01 14:12 35.72392 30.84396 33928 ft 435 kts 348°
2026-05-01 14:13 35.78441 30.83981 33925 ft 435 kts 348°
2026-05-01 14:13 35.84454 30.83609 33929 ft 436 kts 348°
2026-05-01 14:14 35.90512 30.83256 33933 ft 436 kts 348°
2026-05-01 14:14 35.96565 30.82893 33932 ft 435 kts 348°
2026-05-01 14:15 36.02613 30.82521 33930 ft 435 kts 348°
2026-05-01 14:15 36.08628 30.82212 33926 ft 436 kts 349°
2026-05-01 14:16 36.14704 30.82039 33922 ft 437 kts 349°
2026-05-01 14:16 36.20782 30.81884 33919 ft 436 kts 349°
2026-05-01 14:17 36.26845 30.81693 33922 ft 435 kts 349°
2026-05-01 14:17 36.32856 30.81485 33921 ft 435 kts 349°
2026-05-01 14:18 36.38904 30.81274 33924 ft 434 kts 349°
2026-05-01 14:18 36.43926 30.81103 33921 ft 434 kts 349°
2026-05-01 14:19 36.50985 30.80873 33923 ft 434 kts 349°
2026-05-01 14:19 36.56987 30.80669 33925 ft 435 kts 349°
2026-05-01 14:20 36.66064 30.80336 33936 ft 435 kts 348°
2026-05-01 14:21 36.72120 30.80132 33939 ft 435 kts 348°
2026-05-01 14:21 36.78135 30.79935 33942 ft 435 kts 348°
2026-05-01 14:22 36.84247 30.80609 33940 ft 462 kts 11°
2026-05-01 14:22 36.87152 30.82514 33935 ft 484 kts 29°
2026-05-01 14:22 36.89543 30.85566 33912 ft 503 kts 50°
2026-05-01 14:22 36.91085 30.89536 33904 ft 516 kts 71°
2026-05-01 14:23 36.91573 30.93997 33898 ft 522 kts 90°
2026-05-01 14:23 36.91483 30.98472 33897 ft 523 kts 92°
2026-05-01 14:23 36.91054 31.07564 33897 ft 526 kts 94°
2026-05-01 14:24 36.90551 31.16687 33909 ft 527 kts 93°
2026-05-01 14:24 36.90130 31.25838 33919 ft 528 kts 92°
2026-05-01 14:25 36.89758 31.34934 33922 ft 528 kts 92°
2026-05-01 14:25 36.89562 31.44096 33932 ft 527 kts 86°
2026-05-01 14:26 36.90008 31.57808 33948 ft 527 kts 86°
2026-05-01 14:27 36.90296 31.66896 33945 ft 527 kts 86°
2026-05-01 14:27 36.90561 31.76042 33958 ft 527 kts 87°
2026-05-01 14:28 36.90357 31.89759 33960 ft 526 kts 92°
2026-05-01 14:28 36.90032 31.98894 33962 ft 526 kts 91°
2026-05-01 14:29 36.89781 32.07962 33964 ft 526 kts 91°
2026-05-01 14:30 36.89375 32.26228 33962 ft 526 kts 91°
2026-05-01 14:31 36.89004 32.39867 33938 ft 526 kts 91°
2026-05-01 14:31 36.88744 32.49015 33923 ft 527 kts 91°
2026-05-01 14:32 36.88495 32.58174 33916 ft 527 kts 91°
2026-05-01 14:32 36.88244 32.67269 33910 ft 527 kts 91°
2026-05-01 14:33 36.87979 32.76406 33906 ft 527 kts 91°
2026-05-01 14:33 36.87708 32.85532 33903 ft 525 kts 91°
2026-05-01 14:34 36.87427 32.94640 33898 ft 524 kts 91°
2026-05-01 14:34 36.87142 33.03671 33896 ft 524 kts 91°
2026-05-01 14:35 36.86847 33.12738 33881 ft 522 kts 91°
2026-05-01 14:35 36.87058 33.21754 33883 ft 517 kts 77°
2026-05-01 14:35 36.87927 33.26089 33880 ft 511 kts 66°
2026-05-01 14:36 36.89295 33.30150 33880 ft 505 kts 57°
2026-05-01 14:36 36.93294 33.37105 33880 ft 489 kts 38°
2026-05-01 14:37 36.98247 33.42842 33870 ft 485 kts 35°
2026-05-01 14:37 37.03205 33.48542 33881 ft 485 kts 35°
2026-05-01 14:38 37.08174 33.54265 33882 ft 485 kts 36°
2026-05-01 14:38 37.13110 33.59944 33884 ft 485 kts 36°
2026-05-01 14:39 37.18082 33.65673 33888 ft 486 kts 36°
2026-05-01 14:39 37.23050 33.71425 33907 ft 486 kts 36°
2026-05-01 14:40 37.28014 33.77188 33898 ft 486 kts 36°
2026-05-01 14:40 37.32970 33.82954 33903 ft 485 kts 37°
2026-05-01 14:41 37.37897 33.88663 33904 ft 485 kts 37°
2026-05-01 14:41 37.42849 33.94430 33906 ft 485 kts 37°
2026-05-01 14:42 37.47790 34.00209 33910 ft 485 kts 37°
2026-05-01 14:42 37.52723 34.05989 33902 ft 484 kts 38°
2026-05-01 14:43 37.57608 34.11737 33897 ft 484 kts 38°
2026-05-01 14:43 37.62521 34.17525 33896 ft 483 kts 38°
2026-05-01 14:44 37.67431 34.23308 33896 ft 482 kts 39°
2026-05-01 14:44 37.74748 34.31944 33897 ft 482 kts 39°
2026-05-01 14:45 37.82069 34.40632 33899 ft 480 kts 39°
2026-05-01 14:46 37.86938 34.46415 33907 ft 480 kts 40°
2026-05-01 14:46 37.94190 34.55059 33915 ft 479 kts 40°
2026-05-01 14:47 37.99049 34.60831 33907 ft 478 kts 40°
2026-05-01 14:48 38.06321 34.69500 33898 ft 479 kts 40°
2026-05-01 14:48 38.13565 34.78167 33892 ft 479 kts 41°
2026-05-01 14:49 38.23294 34.89850 33874 ft 481 kts 41°
2026-05-01 14:50 38.32954 35.01443 33851 ft 479 kts 41°
2026-05-01 14:51 38.40277 35.10090 33849 ft 479 kts 39°
2026-05-01 14:52 38.47950 35.18185 33857 ft 480 kts 37°
2026-05-01 14:53 38.55562 35.26518 33877 ft 481 kts 43°
2026-05-01 14:53 38.60262 35.32616 33895 ft 481 kts 45°
2026-05-01 14:54 38.64849 35.38757 33917 ft 481 kts 45°
2026-05-01 14:54 38.69544 35.44838 33916 ft 480 kts 44°
2026-05-01 14:55 38.74285 35.50853 33905 ft 479 kts 44°
2026-05-01 14:55 38.79009 35.56874 33896 ft 480 kts 44°
2026-05-01 14:56 38.83692 35.62889 33893 ft 479 kts 44°
2026-05-01 14:56 38.88397 35.68957 33880 ft 480 kts 44°
2026-05-01 14:57 38.93097 35.75031 33869 ft 480 kts 44°
2026-05-01 14:57 39.00226 35.84036 33848 ft 479 kts 43°
2026-05-01 14:58 39.05019 35.89929 33845 ft 480 kts 43°
2026-05-01 14:58 39.09830 35.95871 33848 ft 480 kts 43°
2026-05-01 14:59 39.14620 36.01860 33854 ft 480 kts 44°
2026-05-01 14:59 39.19301 36.07923 33856 ft 480 kts 46°
2026-05-01 15:00 39.26174 36.17314 33853 ft 480 kts 46°
2026-05-01 15:01 39.30776 36.23579 33847 ft 481 kts 46°
2026-05-01 15:01 39.35405 36.29813 33843 ft 481 kts 46°
2026-05-01 15:02 39.39995 36.36015 33850 ft 481 kts 46°
2026-05-01 15:02 39.44616 36.42281 33847 ft 481 kts 46°
2026-05-01 15:03 39.49232 36.48556 33846 ft 481 kts 46°
2026-05-01 15:03 39.53812 36.54806 33850 ft 482 kts 46°
2026-05-01 15:04 39.58423 36.61104 33858 ft 482 kts 46°
2026-05-01 15:04 39.63027 36.67418 33898 ft 482 kts 46°
2026-05-01 15:05 39.67631 36.73745 33934 ft 482 kts 46°
2026-05-01 15:05 39.72207 36.80031 33963 ft 482 kts 46°
2026-05-01 15:06 39.76807 36.86372 33969 ft 482 kts 46°
2026-05-01 15:06 39.80726 36.93404 33968 ft 480 kts 62°
2026-05-01 15:07 39.84002 37.00975 33966 ft 481 kts 61°
2026-05-01 15:07 39.87278 37.08513 33936 ft 482 kts 61°
2026-05-01 15:08 39.90577 37.16108 33906 ft 482 kts 62°
2026-05-01 15:08 39.93855 37.23718 33885 ft 481 kts 62°
2026-05-01 15:09 39.97120 37.31324 33861 ft 481 kts 62°
2026-05-01 15:09 40.00363 37.38868 33855 ft 480 kts 62°
2026-05-01 15:10 40.03627 37.46469 33868 ft 481 kts 62°
2026-05-01 15:10 40.08499 37.57892 33876 ft 480 kts 63°
2026-05-01 15:11 40.13369 37.69276 33895 ft 482 kts 62°
2026-05-01 15:12 40.16637 37.76914 33900 ft 481 kts 62°
2026-05-01 15:12 40.21530 37.88381 33907 ft 481 kts 62°
2026-05-01 15:14 40.29644 38.07493 33919 ft 482 kts 64°
2026-05-01 15:14 40.34434 38.18991 33908 ft 479 kts 63°
2026-05-01 15:15 40.40652 38.34348 33916 ft 479 kts 63°
2026-05-01 15:16 40.47344 38.49655 33948 ft 484 kts 62°
2026-05-01 15:18 40.55420 38.68922 33974 ft 482 kts 64°
2026-05-01 15:19 40.61708 38.84555 33964 ft 486 kts 64°
2026-05-01 15:19 40.66439 38.96215 33968 ft 484 kts 64°
2026-05-01 15:20 40.69594 39.04061 34181 ft 485 kts 64°
2026-05-01 15:20 40.71166 39.07987 34425 ft 486 kts 64°
2026-05-01 15:20 40.72750 39.11940 34676 ft 487 kts 64°
2026-05-01 15:21 40.74331 39.15888 34902 ft 488 kts 64°
2026-05-01 15:21 40.77482 39.23765 34994 ft 490 kts 64°
2026-05-01 15:22 40.82231 39.35704 35009 ft 490 kts 64°
2026-05-01 15:22 40.85389 39.43668 35014 ft 489 kts 64°
2026-05-01 15:23 40.88554 39.51630 35032 ft 489 kts 64°
2026-05-01 15:23 40.91673 39.59535 35040 ft 488 kts 64°
2026-05-01 15:24 40.94811 39.67507 35049 ft 489 kts 64°
2026-05-01 15:24 40.97943 39.75491 35049 ft 489 kts 64°
2026-05-01 15:25 41.00999 39.83469 35044 ft 489 kts 66°
2026-05-01 15:25 41.03825 39.91678 35034 ft 489 kts 68°
2026-05-01 15:26 41.06560 39.99927 35039 ft 489 kts 67°
2026-05-01 15:26 41.09338 40.08168 35019 ft 490 kts 67°
2026-05-01 15:27 41.12132 40.16346 35011 ft 490 kts 66°
2026-05-01 15:28 41.16344 40.28698 35012 ft 490 kts 67°
2026-05-01 15:28 41.19129 40.36954 35005 ft 490 kts 67°
2026-05-01 15:29 41.23279 40.49299 35012 ft 490 kts 67°
2026-05-01 15:30 41.28845 40.65852 35010 ft 491 kts 67°
2026-05-01 15:31 41.37106 40.90688 35005 ft 491 kts 67°
2026-05-01 15:32 41.42606 41.07337 35004 ft 491 kts 67°
2026-05-01 15:34 41.50782 41.32322 35007 ft 492 kts 67°